Change the Weather History Date:

Wednesday, May 14, 2014

  Actual Average Record
Temperature  
Mean Temperature 48 °F -  
Max Temperature 53 °F 69 °F 92 °F (1991)
Min Temperature 44 °F 46 °F 33 °F (1953)
Degree Days  
Heating Degree Days 16    
Moisture  
Dew Point 36 °F    
Average Humidity 65    
Maximum Humidity 76    
Minimum Humidity 50    
Precipitation  
Precipitation 0.00 in - - ()
Sea Level Pressure  
Sea Level Pressure 30.14 in    
Wind  
Wind Speed 6 mph (NNW)    
Max Wind Speed 9 mph    
Max Gust Speed -    
Visibility 10 miles    
Events Rain    
Averages and records for this station are not official NWS values.
T = Trace of Precipitation, MM = Missing Value Source: NWS Daily Summary

Daily Weather History Graph

Daily Weather History Graph

Search for Another Location

Airport or City:

Trip Planner

Search our weather history database for the weather conditions in past years. The results will help you decide how hot, cold, wet, or windy it might be!

Date:

Astronomy

May. 14, 2014 Rise Set
Actual Time 5:29 AM CDT 8:07 PM CDT
Civil Twilight 4:57 AM CDT 8:40 PM CDT
Nautical Twilight 4:16 AM CDT 9:21 PM CDT
Astronomical Twilight 3:29 AM CDT 10:08 PM CDT
Moon 8:12 PM CDT (5/14) 5:29 AM CDT (5/14)
Length of Visible Light 15h 43m
Length of Day
14h 38m
Full, 100% of the Moon is Illuminated
May 14
Full
May 14
Full
May 21
Last Quarter
May 28
New
Jun 5
First Quarter

Hourly Weather History & Observations

Time (CDT) Temp. Windchill Dew Point Humidity Pressure Visibility Wind Dir Wind Speed Gust Speed Precip Events Conditions
12:15 AM 50.0 °F - 37.4 °F 62% 30.14 in 10.0 mi NW 9.2 mph - N/A   Overcast
12:35 AM 50.0 °F - 35.6 °F 58% 30.14 in 10.0 mi NW 9.2 mph - N/A   Mostly Cloudy
12:55 AM 48.2 °F - 35.6 °F 62% 30.14 in 10.0 mi WNW 4.6 mph - N/A   Scattered Clouds
1:15 AM 48.2 °F - 35.6 °F 62% 30.14 in 10.0 mi WNW 4.6 mph - N/A   Clear
1:35 AM 46.4 °F 44.3 °F 35.6 °F 66% 30.15 in 10.0 mi West 4.6 mph - N/A   Clear
1:55 AM 46.4 °F 44.3 °F 37.4 °F 71% 30.15 in 10.0 mi West 4.6 mph - N/A   Clear
2:15 AM 46.4 °F 44.3 °F 37.4 °F 71% 30.15 in 10.0 mi West 4.6 mph - N/A   Clear
2:35 AM 46.4 °F 44.3 °F 37.4 °F 71% 30.15 in 10.0 mi West 4.6 mph - N/A   Clear
2:55 AM 46.4 °F 44.3 °F 37.4 °F 71% 30.15 in 10.0 mi West 4.6 mph - N/A   Clear
3:15 AM 44.6 °F 42.2 °F 37.4 °F 76% 30.15 in 10.0 mi West 4.6 mph - N/A   Clear
3:35 AM 44.6 °F 42.2 °F 37.4 °F 76% 30.15 in 10.0 mi West 4.6 mph - N/A   Clear
3:55 AM 44.6 °F 41.4 °F 37.4 °F 76% 30.16 in 10.0 mi West 5.8 mph - N/A   Clear
4:15 AM 46.4 °F 44.3 °F 37.4 °F 71% 30.16 in 10.0 mi WNW 4.6 mph - N/A   Clear
4:35 AM 44.6 °F 42.2 °F 37.4 °F 76% 30.16 in 10.0 mi WNW 4.6 mph - N/A   Clear
4:55 AM 44.6 °F 42.2 °F 37.4 °F 76% 30.16 in 10.0 mi WNW 4.6 mph - N/A   Clear
5:15 AM 44.6 °F 41.4 °F 35.6 °F 71% 30.17 in 10.0 mi WNW 5.8 mph - N/A   Clear
5:35 AM 44.6 °F 42.2 °F 35.6 °F 71% 30.17 in 10.0 mi WNW 4.6 mph - N/A   Clear
5:55 AM 44.6 °F 42.2 °F 35.6 °F 71% 30.17 in 10.0 mi NW 4.6 mph - N/A   Clear
6:15 AM 44.6 °F 42.2 °F 35.6 °F 71% 30.18 in 10.0 mi NW 4.6 mph - N/A   Clear
6:35 AM 44.6 °F 40.2 °F 35.6 °F 71% 30.18 in 10.0 mi NW 8.1 mph - N/A   Clear
6:45 AM 46.4 °F 42.9 °F 37.4 °F 71% 30.18 in 10.0 mi WNW 6.9 mph - N/A   Clear
7:45 AM 48.2 °F - 37.4 °F 66% 30.19 in 10.0 mi NNW 6.9 mph - N/A   Clear
8:45 AM 51.8 °F - 37.4 °F 58% 30.20 in 10.0 mi North 6.9 mph - N/A   Clear
9:45 AM 53.6 °F - 37.4 °F 54% 30.20 in 10.0 mi North 8.1 mph - N/A   Clear
10:45 AM 53.6 °F - 39.2 °F 58% 30.18 in 10.0 mi North 8.1 mph - N/A   Mostly Cloudy
11:45 AM 53.6 °F - 37.4 °F 54% 30.18 in 10.0 mi ENE 9.2 mph - N/A   Overcast
12:45 PM 53.6 °F - 35.6 °F 51% 30.19 in 10.0 mi NE 4.6 mph - N/A   Overcast
1:45 PM 51.8 °F - 33.8 °F 50% 30.17 in 10.0 mi ENE 6.9 mph - N/A   Mostly Cloudy
2:45 PM 51.8 °F - 33.8 °F 50% 30.17 in 10.0 mi ENE 6.9 mph - N/A   Mostly Cloudy
3:45 PM 51.8 °F - 33.8 °F 50% 30.14 in 10.0 mi ENE 5.8 mph - N/A   Mostly Cloudy
4:45 PM 50.0 °F - 33.8 °F 54% 30.11 in 10.0 mi NNE 8.1 mph - N/A   Overcast
6:45 PM 48.2 °F - 37.4 °F 66% 30.11 in 10.0 mi North 6.9 mph - N/A   Light Drizzle
7:45 PM 50.0 °F - 35.6 °F 58% 30.09 in 10.0 mi North 4.6 mph - N/A   Overcast
9:15 PM 46.4 °F 43.5 °F 35.6 °F 66% 30.06 in 10.0 mi NNW 5.8 mph - N/A   Overcast
9:35 PM 48.2 °F - 35.6 °F 62% 30.06 in 10.0 mi North 4.6 mph - N/A   Overcast
9:55 PM 48.2 °F - 35.6 °F 62% 30.05 in 10.0 mi ENE 5.8 mph - N/A   Overcast
10:15 PM 46.4 °F 44.3 °F 33.8 °F 62% 30.06 in 10.0 mi East 4.6 mph - N/A   Overcast
10:35 PM 46.4 °F 44.3 °F 33.8 °F 62% 30.05 in 10.0 mi East 4.6 mph - N/A   Overcast
11:15 PM 46.4 °F 42.4 °F 35.6 °F 66% 30.03 in 10.0 mi NNE 8.1 mph - N/A Rain Light Rain
11:35 PM 44.6 °F 39.7 °F 33.8 °F 66% 30.03 in 10.0 mi North 9.2 mph - N/A   Drizzle
11:55 PM 44.6 °F 40.2 °F 33.8 °F 66% 30.03 in 10.0 mi North 8.1 mph - N/A Rain Light Rain